Location: Ajisawe
(8.4333°N, 4.3833°E)
Time: 13:11:45
(UTC+00:00)

Courier 1B Rocket - Pass Details

Date: 27 April 2021
Orbit: 920 x 1202 km, 28.2° (Epoch: 07 May)

Event Time Altitude Azimuth Distance (km) Brightness Sun altitude
Rises 21:13:04 0° 311° (NW) 3,693 8.7 -47.1°
Reaches altitude 10° 21:15:57 10° 320° (NW) 2,786 7.9 -47.7°
Enters shadow 21:17:05 15° 326° (NW) 2,459 7.5 -48.0°
Maximum altitude 21:22:03 34° 24° (NNE) 1,665 - -49.0°
Drops below altitude 10° 21:28:33 10° 87° (E) 2,978 - -50.3°
Sets 21:31:43 0° 96° (E) 3,980 - -51.0°
